Weather History for Lee's Summit, MO

Change the Weather History Date:

Thursday, December 6, 2012

  Actual Average (KMKC) Record (KMKC)
Temperature  
Mean Temperature 46 °F -  
Max Temperature 52 °F 44 °F 60 °F (2001)
Min Temperature 41 °F 29 °F 10 °F (2005)
Degree Days  
Heating Degree Days 18    
Moisture  
Dew Point 38 °F    
Average Humidity 70    
Maximum Humidity 83    
Minimum Humidity 54    
Precipitation  
Precipitation 0.00 in - - ()
Sea Level Pressure  
Sea Level Pressure 29.94 in    
Wind  
Wind Speed 8 mph (SSE)    
Max Wind Speed 13 mph    
Max Gust Speed 18 mph    
Visibility 10 miles    
Events      
Averages and records for this station are not official NWS values.
T = Trace of Precipitation, MM = Missing Value Source: NWS Daily Summary

Daily Weather History Graph

Daily Weather History Graph

Search for Another Location

Airport:

Trip Planner

Search our weather history database for the weather conditions in past years. The results will help you decide how hot, cold, wet, or windy it might be!

Date:

Astronomy

Dec. 06, 2012 Rise Set
Actual Time 7:22 AM CST 4:55 PM CST
Civil Twilight 6:52 AM CST 5:24 PM CST
Nautical Twilight 6:19 AM CST 5:58 PM CST
Astronomical Twilight 5:47 AM CST 6:30 PM CST
Moon No Moon Rise 12:18 PM CST (12/6)
Length of Visible Light 10h 32m
Length of Day
9h 32m
Waning Gibbous, 49% of the Moon is Illuminated
Dec 6
Waning Gibbous
Dec 13
New
Dec 19
First Quarter
Dec 28
Full
Jan 4
Last Quarter

Hourly Weather History & Observations

Time (CST) Temp. Windchill Dew Point Humidity Pressure Visibility Wind Dir Wind Speed Gust Speed Precip Events Conditions
12:53 AM 46.0 °F 40.2 °F 30.0 °F 54% 30.01 in 10.0 mi South 12.7 mph - N/A   Clear
1:53 AM 45.0 °F 40.6 °F 30.9 °F 58% 30.01 in 10.0 mi South 8.1 mph - N/A   Clear
2:53 AM 43.0 °F 39.5 °F 30.9 °F 62% 30.01 in 10.0 mi South 5.8 mph - N/A   Clear
3:53 AM 43.0 °F 37.7 °F 30.0 °F 60% 29.99 in 10.0 mi South 9.2 mph - N/A   Clear
4:53 AM 44.1 °F 38.6 °F 30.9 °F 60% 29.98 in 10.0 mi South 10.4 mph 18.4 mph N/A   Clear
5:53 AM 42.1 °F 36.6 °F 30.9 °F 65% 29.96 in 10.0 mi SSE 9.2 mph - N/A   Clear
6:53 AM 41.0 °F 36.4 °F 30.9 °F 67% 29.97 in 10.0 mi SSE 6.9 mph - N/A   Clear
7:53 AM 42.1 °F 37.7 °F 33.1 °F 70% 29.96 in 10.0 mi South 6.9 mph - N/A   Clear
8:53 AM 44.1 °F 40.8 °F 34.0 °F 68% 29.97 in 10.0 mi SSE 5.8 mph - N/A   Clear
9:53 AM 46.9 °F - 36.0 °F 66% 29.97 in 10.0 mi South 5.8 mph - N/A   Mostly Cloudy
10:15 AM 46.4 °F 43.5 °F 37.4 °F 71% 29.96 in 10.0 mi SSE 5.8 mph - N/A   Scattered Clouds
10:53 AM 50.0 °F - 39.0 °F 66% 29.95 in 10.0 mi South 9.2 mph - N/A   Clear
11:53 AM 50.0 °F - 39.9 °F 68% 29.93 in 10.0 mi South 6.9 mph - N/A   Mostly Cloudy
12:26 PM 50.0 °F - 41.0 °F 71% 29.91 in 10.0 mi South 9.2 mph - N/A   Scattered Clouds
12:36 PM 50.0 °F - 41.0 °F 71% 29.90 in 10.0 mi South 9.2 mph - N/A   Mostly Cloudy
12:48 PM 51.8 °F - 41.0 °F 67% 29.90 in 10.0 mi South 10.4 mph - N/A   Scattered Clouds
12:53 PM 51.1 °F - 41.0 °F 68% 29.90 in 10.0 mi South 8.1 mph - N/A   Partly Cloudy
1:53 PM 52.0 °F - 42.1 °F 69% 29.90 in 10.0 mi Variable 3.5 mph - N/A   Partly Cloudy
2:53 PM 52.0 °F - 43.0 °F 71% 29.89 in 10.0 mi Calm Calm - N/A   Clear
3:53 PM 51.1 °F - 43.0 °F 74% 29.88 in 10.0 mi ESE 4.6 mph - N/A   Clear
4:53 PM 50.0 °F - 42.1 °F 74% 29.90 in 10.0 mi ENE 3.5 mph - N/A   Clear
5:53 PM 50.0 °F - 42.1 °F 74% 29.90 in 10.0 mi NE 3.5 mph - N/A   Clear
6:53 PM 46.9 °F - 41.0 °F 80% 29.93 in 10.0 mi Calm Calm - N/A   Clear
7:53 PM 48.0 °F - 41.0 °F 77% 29.93 in 10.0 mi NNE 3.5 mph - N/A   Partly Cloudy
8:53 PM 46.0 °F 43.9 °F 41.0 °F 83% 29.92 in 10.0 mi NNE 4.6 mph - N/A   Clear
9:53 PM 48.0 °F - 42.1 °F 80% 29.91 in 10.0 mi ENE 9.2 mph - N/A   Overcast
10:53 PM 48.0 °F - 42.1 °F 80% 29.90 in 10.0 mi NE 4.6 mph - N/A   Overcast
11:42 PM 46.4 °F 42.4 °F 41.0 °F 81% 29.90 in 10.0 mi North 8.1 mph - N/A   Overcast
11:53 PM 46.9 °F - 41.0 °F 80% 29.91 in 10.0 mi North 8.1 mph - N/A   Overcast